Weather History for Howell, MI

Change the Weather History Date:

Tuesday, November 20, 2012

  Actual Average Record
Temperature  
Mean Temperature 48 °F -  
Max Temperature 57 °F 45 °F 59 °F (2003)
Min Temperature 40 °F 32 °F 23 °F (2013)
Degree Days  
Heating Degree Days 16    
Moisture  
Dew Point 35 °F    
Average Humidity 62    
Maximum Humidity 85    
Minimum Humidity 40    
Precipitation  
Precipitation 0.00 in - - ()
Sea Level Pressure  
Sea Level Pressure 30.12 in    
Wind  
Wind Speed 2 mph (SE)    
Max Wind Speed 5 mph    
Max Gust Speed -    
Visibility 9 miles    
Events Rain    
Averages and records for this station are not official NWS values.
T = Trace of Precipitation, MM = Missing Value Source: NWS Daily Summary

Daily Weather History Graph

Daily Weather History Graph

Search for Another Location

Airport:

Trip Planner

Search our weather history database for the weather conditions in past years. The results will help you decide how hot, cold, wet, or windy it might be!

Date:

Astronomy

Nov. 20, 2012 Rise Set
Actual Time 7:34 AM EST 5:08 PM EST
Civil Twilight 7:03 AM EST 5:39 PM EST
Nautical Twilight 6:28 AM EST 6:14 PM EST
Astronomical Twilight 5:55 AM EST 6:47 PM EST
Moon 1:03 PM EST No Moon Set
Length of Visible Light 10h 36m
Length of Day
9h 34m
Waxing Crescent, 51% of the Moon is Illuminated
Nov 20
Waxing Crescent
Nov 28
Full
Dec 6
Last Quarter
Dec 13
New
Dec 20
First Quarter

Hourly Weather History & Observations

Time (EST) Temp. Windchill Dew Point Humidity Pressure Visibility Wind Dir Wind Speed Gust Speed Precip Events Conditions
12:14 AM 42.4 °F 40.7 °F 29.5 °F 60% 30.16 in 10.0 mi SSE 3.5 mph - N/A   Clear
12:35 AM 42.1 °F 40.2 °F 29.5 °F 61% 30.17 in 10.0 mi SSE 3.5 mph - N/A   Clear
12:55 AM 42.3 °F 39.4 °F 29.8 °F 61% 30.17 in 10.0 mi SE 4.6 mph - N/A   Scattered Clouds
1:14 AM 41.9 °F - 30.2 °F 63% 30.16 in 10.0 mi Calm Calm - N/A   Mostly Cloudy
1:35 AM 42.3 °F 40.5 °F 29.3 °F 60% 30.15 in 10.0 mi SE 3.5 mph - N/A   Mostly Cloudy
1:55 AM 41.4 °F 39.4 °F 30.0 °F 64% 30.15 in 10.0 mi SE 3.5 mph - N/A   Mostly Cloudy
2:14 AM 41.2 °F 39.2 °F 30.9 °F 67% 30.15 in 10.0 mi SE 3.5 mph - N/A   Overcast
2:35 AM 41.4 °F 39.4 °F 31.1 °F 67% 30.14 in 10.0 mi ESE 3.5 mph - N/A   Overcast
2:55 AM 41.2 °F 39.2 °F 31.1 °F 67% 30.14 in 10.0 mi ESE 3.5 mph - N/A   Overcast
3:14 AM 41.4 °F 38.4 °F 31.8 °F 69% 30.14 in 10.0 mi SE 4.6 mph - N/A   Overcast
3:35 AM 41.4 °F - 32.0 °F 69% 30.13 in 10.0 mi Calm Calm - N/A   Overcast
3:54 AM 41.4 °F 39.4 °F 32.0 °F 69% 30.12 in 10.0 mi SE 3.5 mph - N/A   Overcast
4:14 AM 41.5 °F - 32.0 °F 69% 30.13 in 10.0 mi Calm Calm - N/A   Overcast
4:35 AM 42.4 °F - 32.0 °F 67% 30.12 in 10.0 mi Calm Calm - N/A   Overcast
4:54 AM 43.2 °F - 32.0 °F 65% 30.13 in 10.0 mi Calm Calm - N/A   Overcast
5:15 AM 43.0 °F - 32.0 °F 65% 30.12 in 10.0 mi Calm Calm - N/A   Mostly Cloudy
5:34 AM 42.1 °F - 32.0 °F 67% 30.12 in 10.0 mi Calm Calm - N/A   Overcast
5:54 AM 41.4 °F - 32.9 °F 72% 30.12 in 10.0 mi Calm Calm - N/A   Overcast
6:15 AM 41.7 °F - 33.4 °F 72% 30.12 in 10.0 mi Calm Calm - N/A   Overcast
6:34 AM 41.4 °F - 33.6 °F 74% 30.12 in 10.0 mi Calm Calm - N/A   Overcast
6:55 AM 41.2 °F 39.2 °F 33.1 °F 73% 30.11 in 10.0 mi ESE 3.5 mph - N/A   Overcast
7:15 AM 41.9 °F - 33.3 °F 71% 30.12 in 10.0 mi Calm Calm - N/A   Overcast
7:34 AM 40.6 °F - 32.5 °F 73% 30.12 in 10.0 mi Calm Calm - N/A   Scattered Clouds
7:55 AM 41.2 °F - 33.4 °F 74% 30.12 in 7.0 mi Calm Calm - N/A   Clear
8:15 AM 40.3 °F - 33.1 °F 75% 30.12 in 7.0 mi Calm Calm - N/A   Scattered Clouds
8:34 AM 40.3 °F - 33.3 °F 76% 30.13 in 7.0 mi Calm Calm - N/A   Mostly Cloudy
8:55 AM 41.7 °F - 35.6 °F 79% 30.13 in 5.0 mi Calm Calm - N/A   Haze
9:15 AM 43.5 °F 41.9 °F 35.8 °F 74% 30.13 in 7.0 mi ESE 3.5 mph - N/A   Overcast
9:34 AM 44.6 °F - 36.0 °F 72% 30.13 in 7.0 mi Calm Calm - N/A   Overcast
9:55 AM 46.6 °F - 34.5 °F 63% 30.12 in 10.0 mi Calm Calm - N/A   Overcast
10:14 AM 47.5 °F - 33.4 °F 58% 30.12 in 10.0 mi Calm Calm - N/A   Overcast
10:34 AM 49.3 °F - 34.7 °F 57% 30.11 in 10.0 mi Calm Calm - N/A   Mostly Cloudy
10:55 AM 52.7 °F - 34.5 °F 50% 30.12 in 10.0 mi Calm Calm - N/A   Mostly Cloudy
11:14 AM 54.0 °F - 34.3 °F 47% 30.11 in 7.0 mi Calm Calm - N/A   Overcast
11:34 AM 55.6 °F - 33.1 °F 43% 30.11 in 10.0 mi Calm Calm - N/A   Overcast
11:55 AM 54.5 °F - 33.6 °F 45% 30.10 in 10.0 mi Calm Calm - N/A   Overcast
12:14 PM 54.1 °F - 33.4 °F 46% 30.10 in 10.0 mi Calm Calm - N/A   Overcast
12:35 PM 54.5 °F - 33.1 °F 44% 30.09 in 10.0 mi Calm Calm - N/A   Overcast
12:54 PM 55.2 °F - 34.0 °F 45% 30.09 in 10.0 mi Calm Calm - N/A   Overcast
1:15 PM 56.1 °F - 33.4 °F 42% 30.08 in 10.0 mi SW 3.5 mph - N/A   Overcast
1:35 PM 56.3 °F - 33.8 °F 43% 30.07 in 10.0 mi South 3.5 mph - N/A   Overcast
1:54 PM 56.3 °F - 34.2 °F 43% 30.07 in 10.0 mi South 3.5 mph - N/A   Mostly Cloudy
2:15 PM 56.8 °F - 34.5 °F 43% 30.07 in 10.0 mi Calm Calm - N/A   Overcast
2:35 PM 57.7 °F - 34.3 °F 41% 30.06 in 10.0 mi Calm Calm - N/A   Overcast
2:54 PM 57.4 °F - 33.4 °F 40% 30.07 in 10.0 mi Calm Calm - N/A   Overcast
3:15 PM 57.2 °F - 34.5 °F 43% 30.07 in 10.0 mi Calm Calm - N/A   Overcast
3:35 PM 56.1 °F - 35.8 °F 46% 30.07 in 10.0 mi Calm Calm - N/A   Overcast
3:54 PM 55.6 °F - 35.6 °F 47% 30.07 in 10.0 mi Calm Calm - N/A Rain Light Rain
4:15 PM 55.2 °F - 36.3 °F 49% 30.07 in 10.0 mi Calm Calm - N/A   Overcast
4:35 PM 54.1 °F - 37.9 °F 54% 30.08 in 10.0 mi Calm Calm - N/A   Overcast
4:54 PM 54.1 °F - 35.8 °F 50% 30.09 in 10.0 mi Calm Calm - N/A   Overcast
5:15 PM 53.6 °F - 35.6 °F 51% 30.09 in 10.0 mi Calm Calm - N/A   Overcast
5:34 PM 53.2 °F - 35.6 °F 51% 30.10 in 10.0 mi ENE 3.5 mph - N/A Rain Light Rain
5:55 PM 51.8 °F - 36.7 °F 56% 30.11 in 10.0 mi NE 3.5 mph - N/A   Light Drizzle
6:14 PM 51.3 °F - 37.4 °F 59% 30.11 in 10.0 mi ENE 3.5 mph - N/A   Overcast
6:34 PM 51.1 °F - 37.6 °F 60% 30.12 in 10.0 mi ENE 4.6 mph - N/A   Overcast
6:55 PM 50.7 °F - 37.9 °F 62% 30.12 in 10.0 mi East 4.6 mph - N/A   Overcast
7:14 PM 49.8 °F - 38.5 °F 65% 30.12 in 10.0 mi SE 4.6 mph - N/A   Mostly Cloudy
7:34 PM 48.6 °F - 39.2 °F 70% 30.12 in 7.0 mi SE 3.5 mph - N/A   Mostly Cloudy
7:55 PM 49.3 °F - 39.4 °F 69% 30.13 in 7.0 mi Calm Calm - N/A   Overcast
8:14 PM 48.9 °F - 39.2 °F 69% 30.13 in 7.0 mi Calm Calm - N/A   Overcast
8:35 PM 50.0 °F - 38.5 °F 65% 30.14 in 10.0 mi Calm Calm - N/A   Overcast
8:55 PM 48.9 °F - 38.7 °F 68% 30.13 in 10.0 mi East 3.5 mph - N/A   Overcast
9:14 PM 48.0 °F - 39.0 °F 71% 30.14 in 7.0 mi Calm Calm - N/A   Scattered Clouds
9:35 PM 47.3 °F - 39.2 °F 73% 30.13 in 7.0 mi Calm Calm - N/A   Clear
9:55 PM 45.9 °F - 38.3 °F 75% 30.14 in 7.0 mi Calm Calm - N/A   Clear
10:14 PM 45.5 °F - 38.8 °F 78% 30.14 in 7.0 mi Calm Calm - N/A   Clear
10:35 PM 45.7 °F - 39.2 °F 78% 30.15 in 7.0 mi Calm Calm - N/A   Scattered Clouds
10:55 PM 44.4 °F - 38.5 °F 80% 30.15 in 7.0 mi Calm Calm - N/A   Mostly Cloudy
11:14 PM 42.8 °F - 37.9 °F 83% 30.15 in 5.0 mi Calm Calm - N/A   Haze
11:35 PM 42.4 °F - 38.3 °F 85% 30.15 in 5.0 mi Calm Calm - N/A   Haze
11:55 PM 43.3 °F - 39.2 °F 85% 30.15 in 5.0 mi Calm Calm - N/A   Scattered Clouds